sat.trackr.live / text

‹ back to catalog

STARLINK-34157

NORAD 64084 · 2025-107W

PAYLOAD ACTIVE UNKNOWN

§ Identity

Operator
Country
US
Launch date
2025-05-21
Launch site
AFETR
Launch vehicle
Mass (kg)
RCS (m²)

Purposes: comms

External: N2YO · Heavens-Above · Gunter

§ Orbital elements

Epoch: 2026-05-24T23:59:04.779168Z

Period
94.27 min
Inclination
43.0011°
Eccentricity
0.0000479
Mean motion
15.27599130 rev/d
Perigee alt
482.7 km
Apogee alt
483.3 km
Semi-major
6,861.1 km
B*
6.5874e-4
RAAN
130.3613°
Arg perigee
310.9891°
Mean anomaly
49.0919°
Rev number
5,777

§ Raw data

STARLINK-341571 64084U 25107W   26144.99936087  .00017920  00000+0  65874-3 0  99962 64084  43.0011 130.3613 0000479 310.9891  49.0919 15.27599130 57771

JSON: /api/v1/satellites/64084 · /tle

For live sub-satellite position, see the globe view (requires WebGL).

§ Visibility from observer

Set your observer location to see the next 7 days of passes ≥ 10°. The values pass through the URL so the page stays shareable.

No JS? Fill the form by hand. The geolocation button needs JavaScript.